Meath Environmental Platform

Observations for Trim Patrick St

Time AQI Temp °C Hum % Pres Pa CO μg/m³ H₂S μg/m³ NO μg/m³ NO₂ μg/m³ O₃ μg/m³ SO₂ μg/m³ PM1 μg/m³ PM2.5 μg/m³ PM10 μg/m³
Wednesday 5 August 2026
19:41 2 18.5 58 73,170 0.01 1.91 2.78 10.51 65.95 0.58 2 6.65 7.31
19:40 2 18.5 57 73,200 0 0.47 2.69 8.54 58.2 0.38 2 7.44 8.19
19:39 2 18.5 58 73,263 0 2.44 2.64 9.85 66.68 0.74 2 7.43 8.17
19:38 2 18.4 58 73,318 0 1.7 2.64 9.76 67.81 0.13 2 6.66 7.32
19:37 2 18.4 57 73,353 0 1.7 2.65 9.74 66.43 0.1 2.86 7.44 8.19
19:36 2 18.4 58 73,408 0 0.6 2.82 8.35 66.49 0.29 2 5.88 6.46
19:35 2 18.4 58 73,479 0.03 2.02 2.59 8.92 68.16 0.46 2 6.64 7.31
19:33 2 18.4 58 73,591 0 2.75 2.54 9.37 67.64 0.15 2 6.68 7.35
19:32 2 18.4 58 73,628 0 2.33 2.35 9.79 68.7 0.62 2 5.89 6.48
19:31 2 18.4 58 73,638 0 2.7 2.28 8.82 67.08 0.4 2 5.92 6.51
19:30 2 18.4 59 73,648 0 4.12 2.64 10.31 68.82 0.24 2.86 8.11 8.92
19:29 2 18.4 58 73,599 0 4.3 2.58 11.38 67.82 0.82 2.86 6.65 7.31
19:28 2 18.4 58 73,565 0 3.15 2.88 9.72 68.99 0 2 5.88 6.46
19:26 2 18.4 58 73,477 0 3.83 2.61 11.94 65.3 0.16 3.71 8.15 8.96
19:25 2 18.4 58 73,404 0 3.22 2.65 9.42 68.77 0.32 2.86 6.62 7.28
19:24 2 18.4 59 73,375 0 4.96 2.39 10.8 68.98 0.84 2 6.6 7.26
19:23 2 18.4 58 73,265 0 5.64 1.72 11.83 68.27 0.52 2 6.63 7.29
19:22 2 18.4 58 73,155 0 5.85 1.43 12.21 68.93 0.54 2 6.65 7.31
19:21 2 18.4 58 73,000 0 4.51 2.2 10.25 71.13 0.57 2.86 7.37 8.11
19:19 2 18.4 57 72,766 0 3.12 1.91 9.84 70.91 0.46 2 7.46 8.21